Regional Weather Roundup
Issued by NWS

Home | Current Version | Previous Version | Graphics & Text | Print | Product List | Glossary On
Versions: 1 2 3 4 5 6 7 8 9 10 11 12 13 14 15 16 17 18 19 20 21 22 23 24 25 26 27 28 29 30 31 32 33 34 35 36 37 38 39 40 41 42 43 44 45 46 47 48 49 50
000
ASUS43 KDTX 070101
RWRMI
MICHIGAN HOURLY REGIONAL WEATHER ROUNDUP
NATIONAL WEATHER SERVICE DETROIT/PONTIAC MI
900 PM EDT WED MAY 06 2015

NOTE: "FAIR" INDICATES FEW OR NO CLOUDS BELOW 12,000 FEET WITH NO
SIGNIFICANT WEATHER AND/OR OBSTRUCTION TO VISIBILITY.

MIZ047>049-052>055-059>063-066>070-074>076-081>083-070200-
SOUTHEAST LOWER MICHIGAN

CITY           SKY/WX    TMP DP  RH WIND       PRES   REMARKS
ADRIAN         CLEAR     62  57  83 SE7       30.17R
ALMA           CLEAR     69  59  72 SE3       30.14S
ANN ARBOR      CLEAR     64  58  80 S5        30.16S
BAD AXE        CLEAR     57  47  70 E3        30.17R
CARO           CLEAR     60  53  79 CALM      30.15R
DETROIT CITY   PTCLDY    65  57  75 SE5       30.16S
DETROIT        MOCLDY    64  57  78 S6        30.16F
FLINT          CLEAR     68  57  68 E7        30.15R
GROSSE ILE     CLEAR     55  52  88 S3        30.15S FOG
HILLSDALE      CLEAR     64  62  90 SE5       30.16R FOG
HOWELL         CLEAR     67  58  73 SE5       30.15S

CITY           SKY/WX    TMP DP  RH WIND       PRES   REMARKS
JACKSON        CLEAR     66  60  81 SE8       30.15R
LAMBERTVILLE   CLEAR     59  54  82 CALM      30.17S
LANSING        CLEAR     69  59  70 SE5       30.14S
LAPEER         FAIR      66  56  70 CALM      30.16S
MASON          CLEAR     65  60  85 SE5       30.14S
MONROE         CLEAR     57  54  88 SE6       30.15S
PONTIAC        PTCLDY    66  57  72 SE5       30.15S
PORT HOPE        N/A     51  43  74 SE9       30.16S
PORT HURON     CLEAR     52  46  82 CALM      30.18S
TRI CITIES     CLEAR     61  51  70 NE5       30.16S
MIDLAND        FAIR      61  48  61 E6        30.15S
TROY           PTCLDY    68  58  71 CALM      30.18S
SAGINAW HB     CLEAR     61  50  67 CALM      30.15S
$$
MIZ043>046-050>051-056>058-064>065-071>073-077>080-070200-
SOUTHWEST LOWER MICHIGAN

CITY           SKY/WX    TMP DP  RH WIND       PRES   REMARKS
BATTLE CREEK   CLEAR     73  61  65 SE7       30.13S
BENTON HARBOR  MOCLDY    69  60  73 CALM      30.08S
BIG RAPIDS     CLEAR     70  57  63 SE7       30.12S
COLDWATER      CLEAR     65  60  83 SE5       30.13S HAZE
FREMONT        FAIR      71  55  56 SE3       30.10S
HOLLAND        CLEAR     71  61  70 E6        30.10S
GRAND RAPIDS   PTCLDY    68  60  75 E7        30.11F
IONIA          FAIR      69  60  74 E5        30.12S
KALAMAZOO      CLEAR     72  61  68 SE5       30.11S
LUDINGTON      CLEAR     64  55  72 CALM      30.10S
MARSHALL       CLEAR     67  60  78 CALM      30.13R
MOUNT PLEASANT CLEAR     69  56  62 SE3       30.13S
MUSKEGON       MOCLDY    71  59  65 E6        30.10S
SOUTH HAVEN    MOCLDY    70  60  70 CALM      30.09R
$$
MIZ016>042-070200-
NORTHERN LOWER MICHIGAN

CITY           SKY/WX    TMP DP  RH WIND       PRES   REMARKS
ALPENA         PTCLDY    51  42  71 SE6       30.16F
BEAVER ISLAND  CLEAR     54  40  59 E6        30.12F
BELLAIRE       PTCLDY    65  52  63 CALM      30.11R
CADILLAC       MOCLDY    67  55  66 E6        30.12F
CHARLEVOIX     CLEAR     62  41  46 CALM      30.14S
FRANKFORT      PTCLDY    64  48  54 CALM      30.09F
GAYLORD        PTCLDY    67  50  54 CALM      30.13S
GRAYLING       PTCLDY    68  51  55 CALM      30.14S
HARBOR SPRINGS PTCLDY    60  42  50 CALM      30.12S
HOUGHTON LAKE  PTCLDY    66  50  56 SE7       30.15R
MANISTEE       PTCLDY    59  48  67 W3        30.11F
OSCODA         PTCLDY    51  44  75 CALM      30.18R
PELLSTON       PTCLDY    63  43  48 CALM      30.12F
ROGERS CITY    CLEAR     61  38  42 SE8       30.15S
TRAVERSE CITY  MOCLDY    56  37  49 W3        30.10F
$$
MIZ007>008-015-070200-
EASTERN UPPER MICHIGAN

CITY           SKY/WX    TMP DP  RH WIND       PRES   REMARKS
KINROSS        CLEAR     59  43  55 SE9       30.15S
MACKINAC ISLAN CLEAR     42  37  82 E12       30.13S
NEWBERRY       PTCLDY    61  32  33 CALM      30.12S
S. S. MARIE    CLEAR     59  40  49 SE8       30.15S
MUNISING         N/A     65  41  41 S9        30.08S
$$
MIZ004>006-011>014-085-070200-
CENTRAL UPPER MICHIGAN

CITY           SKY/WX    TMP DP  RH WIND       PRES   REMARKS
MANISTIQUE     CLEAR     54  39  58 E3        30.11F
ESCANABA       PTCLDY    52  39  62 SE3       30.11S
MENOMINEE      MOCLDY    55  45  67 E5        30.10R
SAWYER-GWINN   CLEAR     63  43  48 S8        30.09F
$$
MIZ001>003-009>011-084-070200-
WESTERN UPPER MICHIGAN

CITY           SKY/WX    TMP DP  RH WIND       PRES   REMARKS
IRON MOUNTAIN  PTCLDY    63  49  60 SE10      30.07S
HOUGHTON       PTCLDY    54  32  43 E10       30.03F
COPPER HARBOR    N/A     60  30  32 SW12G20   30.02F
IRONWOOD       PTCLDY    70  57  64 S8        29.96S
$$

ABBREVIATIONS USED IN REMARKS
   TC - TEMPERATURE IN CELSIUS
  WCI - WIND CHILL INDEX
   HX - HEAT INDEX
  VSB - VISIBILITY



USA.gov is the U.S. government's official web portal to all federal, state and local government web resources and services.